Flag for Germany Weather past 2 weeks in Rottenburg am Neckar, Baden-Württemberg, Germany

Now
69 °F

Passing clouds.


Feels Like: 69 °F
Forecast: 51 / 69 °F
Wind: 1 mph from Northeast

Location: Stuttgart-Echterdingen

Current Time: Sep 1, 2015 at 2:36:06 AM

Latest Report: Sep 1, 2015 at 2:00 AM


Visibility: 31 mi

Pressure: 29.87 "Hg

Humidity: 62%

Dew point: 55 °F

Location of Rottenburg am NeckarLocation

Historic Weather in Rottenburg am Neckar — Graph

°F

Rottenburg am Neckar temperature yesterday

Maximum temperature yesterday: 91 °F (at 4:00 PM)
Minimum temperature yesterday: 65 °F (at 5:00 AM)
Average temperature yesterday: 78 °F

Past Weeks' High & Low Weather Summary

 TemperatureHumidityPressure
High92 °F (Aug 30, 4:00 PM)97% (Aug 20, 8:00 AM)30.28 "Hg (Aug 20, 8:00 AM)
Low48 °F (Aug 26, 7:00 AM)25% (Aug 31, 6:00 PM)29.67 "Hg (Aug 24, 2:00 PM)
Average67 °F66%30.01 "Hg
* Reported Aug 17 1:00 AM — Sep 1 1:00 AM, Rottenburg am Neckar, Weather by CustomWeather, © 2015

Note: Actual official high and low records may vary slightly from our data, if they occured in-between our weather recording intervals... More about our weather records

Advertising

Rottenburg am Neckar weather history for previous 24 hours

 ConditionsComfort  
Time TempWeatherWind HumidityBarometerVisibility
1:00 AM
Tue, Sep 1
70 °FPassing clouds.1 mph57%29.86 "Hg31 mi
10:00 PM
Mon, Aug 31
76 °FPassing clouds.2 mph43%29.85 "Hg34 mi
9:00 PM82 °FPassing clouds.2 mph34%29.83 "Hg37 mi
8:00 PM86 °FPassing clouds.2 mph31%29.81 "Hg37 mi
7:00 PM89 °FPassing clouds.3 mph28%29.80 "Hg37 mi
6:00 PM91 °FPassing clouds.5 mph25%29.80 "Hg37 mi
4:00 PM91 °FPassing clouds.3 mph28%29.83 "Hg37 mi
3:00 PM90 °FPassing clouds.3 mph28%29.86 "Hg37 mi
2:00 PM89 °FPassing clouds.1 mph29%29.88 "Hg37 mi
1:00 PM87 °FPassing clouds.2 mph32%29.90 "Hg34 mi
12:00 PM86 °FScattered clouds.3 mph34%29.93 "Hg31 mi
10:00 AM78 °FPassing clouds.1 mph55%29.96 "Hg28 mi
9:00 AM71 °FPassing clouds.1 mph74%29.98 "Hg31 mi
8:00 AM67 °FPassing clouds.1 mph83%29.99 "Hg31 mi
7:00 AM65 °FPassing clouds.1 mph85%30.00 "Hg37 mi
5:00 AM65 °FPassing clouds.1 mph88%29.98 "Hg25 mi
4:00 AM66 °FPassing clouds.1 mph87%29.98 "Hg25 mi
3:00 AM67 °FPassing clouds.1 mph82%29.98 "Hg28 mi
2:00 AM68 °FPassing clouds.1 mph83%29.99 "Hg28 mi
Weather by CustomWeather, © 2015

See weather overviewHow to use our weather pages